Home > Time Zones > World Clock > Weather > U.S.A. > Erie > Past weeks

Flag for U.S.A. Weather past 2 weeks in Erie, Pennsylvania, U.S.A.

Now
65 °F

Partly cloudy.


Feels Like: 65 °F
Forecast: 61 / 72 °F
Wind: 9 mph from Northeast

Location: Erie International Airport

Current Time: Jul 24, 2014 at 1:58:32 AM

Latest Report: Jul 24, 2014 at 12:51 AM


Visibility: 10 mi

Pressure: 30.00 "Hg

Humidity: 68%

Dew point: 54 °F

Location of ErieLocation

Historic Weather in Erie — Graph

°F

Erie temperature yesterday

Maximum temperature yesterday: 78 °F (at 12:51 AM)
Minimum temperature yesterday: 66 °F (at 11:51 PM)
Average temperature yesterday: 72 °F

Past Weeks' High & Low Weather Summary

 TemperatureHumidityPressure
High83 °F (Jul 22, 11:51 AM)91% (Jul 23, 10:51 AM)30.25 "Hg (Jul 23, 10:51 AM)
Low53 °F (Jul 17, 5:51 AM)34% (Jul 18, 11:51 AM)29.69 "Hg (Jul 15, 4:51 AM)
Average70 °F69%30.02 "Hg
* Reported Jul 9 12:51 AM — Jul 24 12:51 AM, Erie, Weather by CustomWeather, © 2014

Note: Actual official high and low records may vary slightly from our data, if they occured in-between our weather recording intervals... More about our weather records

Advertising

Erie weather history for previous 24 hours

 ConditionsComfort  
Time TempWeatherWind HumidityBarometerVisibility
12:51 AM
Jul 24
65 °FPartly cloudy.9 mph68%30.00 "Hg10 mi
11:51 PM
Jul 23
66 °FMostly cloudy.7 mph65%30.01 "Hg10 mi
10:51 PM67 °FOvercast.9 mph66%30.01 "Hg10 mi
9:51 PM68 °FOvercast.12 mph63%30.01 "Hg10 mi
8:51 PM68 °FMore clouds than sun.9 mph65%29.99 "Hg10 mi
7:51 PM69 °FMostly cloudy.14 mph68%29.98 "Hg10 mi
6:51 PM71 °FOvercast.8 mph71%29.96 "Hg10 mi
5:51 PM71 °FMostly cloudy.7 mph71%29.95 "Hg10 mi
4:51 PM71 °FMore clouds than sun.9 mph71%29.96 "Hg10 mi
3:51 PM70 °FMostly cloudy.12 mph76%29.97 "Hg10 mi
2:51 PM69 °FOvercast.6 mph81%29.98 "Hg10 mi
1:51 PM68 °FLight rain. Low clouds.8 mph84%29.97 "Hg5 mi
12:51 PM70 °FLow clouds.8 mph81%29.94 "Hg10 mi
11:51 AM70 °FOvercast.9 mph84%29.93 "Hg10 mi
10:51 AM72 °FLight rain. Fog.8 mph91%29.92 "Hg3 mi
9:51 AM73 °FOvercast.10 mph88%29.91 "Hg7 mi
8:51 AM76 °FPassing clouds.7 mph77%29.90 "Hg7 mi
7:51 AM76 °FScattered clouds.9 mph74%29.90 "Hg8 mi
6:51 AM76 °FPassing clouds.13 mph72%29.88 "Hg9 mi
5:51 AM77 °FPassing clouds.8 mph69%29.93 "Hg10 mi
4:51 AM75 °FPassing clouds.10 mph76%29.91 "Hg10 mi
3:51 AM76 °FPassing clouds.8 mph74%29.90 "Hg10 mi
1:51 AM78 °FPassing clouds.9 mph71%29.94 "Hg10 mi
Weather by CustomWeather, © 2014

See weather overviewHow to use our weather pages